NOAA 16 DEB

Satellite information

Favourite Embed

Satellite Type and Status

DEBRISIN ORBIT

Key statistics

Satellite NOAA 16 DEB at a glance.

Uptime

8995

Days in orbit

Revolutions

≈ 14.4

Per day

Orbit

SSO

Sun Synchronous Orbit

Inclination

98.7

Latest

Satellite identification and parameters

Extended collection of information and parameters for NOAA 16 DEB.

Object identification

Identified? True

Debris? True

Object name: NOAA 16 DEB

International designator: 2000-055KN

Object number (NORAD): 41409

Object ID (CCSDS): 41409

Country: UNITED STATES OF AMERICA (US)

Current information (Y/N): Y

RCS size: SMALL

Orbital parameters

Period: 100.185 minutes

Inclination: 98.6524 deg

SMA: 7145.431 km

Apoapsis: 784.78 km

Periapsis: 749.812 km

RAAN: 204.3648 deg

Eccentricy: 0.0024469

Argument of periapsis: 339.285 deg

Mean anomaly: 20.7342 deg

Mean motion: 14.3734205 rev/day

Mean motion (dot): 0.00008212 rev/day2

B* drag term: 0.002754 1/REarth

Two-line elements (TLE)

Creation date: May 7, 2025, 3:14 a.m.

Reference frame: TEME

Reference center: EARTH

Epoch: May 6, 2025, 4:04 a.m. UTC

TLE line 0: 0 NOAA 16 DEB

TLE line 1: 1 41409U 00055KN 25126.16947115 .00008212 00000-0 27540-2 0 9991

TLE line 2: 2 41409 98.6524 204.3648 0024469 339.2850 20.7342 14.37342050477371

Live tracking on map

Real-time ground track for satellite NOAA 16 DEB.

In-orbit conjunctions

A list of the most updated potential collisions computed for object NOAA 16 DEB.

Target Orbit TCA Probability of collision Miss distance Type
COSMOS 1371 LEO 2025-03-22 08:50:16 0.0001407152 839.0 (m) PAYLOAD
COSMOS 1275 DEB LEO 2024-06-24 18:56:48 0.000220916 89.0 (m) DEBRIS

Associated space launch

The NOAA K, L and M POES satellites begin the fifth generation of improved environmental monitoring in support of NOAA missions. The instrument payload has significant improvements and additions/deletions. The instrument changes have effected the spacecraft subsystems and data formats.

NOAA 16 DEB was lifted into orbit during the mission ‘Titan II SLV | NOAA 16’, on board a Titan II SLV space rocket.

The launch took place on Sept. 21, 2000, 10:22 a.m. from Space Launch Complex 4W.

For more information about the launch, click the button.

Launch to space Titan II SLV | NOAA 16
Titan II SLV | NOAA 16

Agency: N/A

Status: Launch Successful

Launch date: Sept. 21, 2000, 10:22 a.m. UTC

Rocket: Titan II SLV

Launch pad: Space Launch Complex 4W

Location: Vandenberg SFB, CA, USA

...

Latest news about this satellite

There are no fresh news available about this satellite. Check back as we update our databases every day.


Newsletter sign-up

Weekly statistics, charts and insights to help you stay on top of the space industry.